TDRS 5

Last updated on Thu Nov 21 2024 00:02:35 GMT+0000 (Coordinated Universal Time)

1 21639U 91054B 24324.49659806 -.00000304 00000+0 00000+0 0 9998 2 21639 14.1429 357.9752 0007787 255.3541 281.8709 1.00263592121946
UTC large
Height (km)
Speed (km/s)
/
Latitude / Longitude
Inclination (degrees)
Orbital Period (minutes)
Azimuth
Elevation
Range (km)
Doppler Factor

Next 0 passes for location: London (51.5072 / 0.1276)

Sorry there are no passes over London.